Merrill, WI

10:05 AM CDT on August 17, 2017 (GMT -0500)
Merrill Municipal

Weather History for KRRL - February, 2013

Change the Weather History Date:

Wednesday, February 20, 2013

  Actual Average Record
Temperature  
Mean Temperature 14 °F -  
Max Temperature 23 °F 29 °F 60 °F (1930)
Min Temperature 3 °F 7 °F -35 °F (1929)
Degree Days  
Heating Degree Days 51    
Moisture  
Dew Point 3 °F    
Average Humidity 67    
Maximum Humidity 85    
Minimum Humidity 46    
Precipitation  
Precipitation 0.00 in - - ()
Sea Level Pressure  
Sea Level Pressure 30.28 in    
Wind  
Wind Speed 10 mph (North)    
Max Wind Speed 16 mph    
Max Gust Speed 28 mph    
Visibility 10 miles    
Events      
Averages and records for this station are not official NWS values.
T = Trace of Precipitation, MM = Missing Value Source: NWS Daily Summary

Daily Weather History Graph

Daily Weather History Graph

Search for Another Location

Airport or City:

Trip Planner

Search our weather history database for the weather conditions in past years. The results will help you decide how hot, cold, wet, or windy it might be!

Date:

Astronomy

Feb. 20, 2013 Rise Set
Actual Time 6:51 AM CST 5:34 PM CST
Civil Twilight 6:21 AM CST 6:03 PM CST
Nautical Twilight 5:47 AM CST 6:38 PM CST
Astronomical Twilight 5:13 AM CST 7:12 PM CST
Moon 12:47 PM CST (2/20) 3:20 AM CST (2/20)
Length of Visible Light 11h 42m
Length of Day
10h 42m
Waxing Gibbous, 76% of the Moon is Illuminated
Feb 20
Waxing Gibbous
Feb 25
Full
Mar 4
Last Quarter
Mar 11
New
Mar 19
First Quarter

Hourly Weather History & Observations

Time (CST) Temp. Windchill Dew Point Humidity Pressure Visibility Wind Dir Wind Speed Gust Speed Precip Events Conditions
12:15 AM 5.0 °F -11.6 °F -0.4 °F 78% 30.12 in 10.0 mi NNW 12.7 mph 16.1 mph N/A   Clear
12:35 AM 5.0 °F -10.0 °F -0.4 °F 78% 30.12 in 10.0 mi NNW 10.4 mph - N/A   Clear
12:55 AM 5.0 °F -10.8 °F -0.4 °F 78% 30.13 in 10.0 mi NNW 11.5 mph 16.1 mph N/A   Scattered Clouds
1:15 AM 5.0 °F -9.1 °F -0.4 °F 78% 30.13 in 10.0 mi NNW 9.2 mph - N/A   Overcast
1:35 AM 5.0 °F -9.1 °F -0.4 °F 78% 30.14 in 10.0 mi NNW 9.2 mph 17.3 mph N/A   Overcast
1:55 AM 5.0 °F -10.0 °F -0.4 °F 78% 30.15 in 10.0 mi NNW 10.4 mph - N/A   Mostly Cloudy
2:15 AM 5.0 °F -6.9 °F -0.4 °F 78% 30.16 in 10.0 mi NW 6.9 mph - N/A   Scattered Clouds
2:35 AM 5.0 °F -9.1 °F -0.4 °F 78% 30.17 in 10.0 mi NW 9.2 mph - N/A   Mostly Cloudy
2:55 AM 5.0 °F -9.1 °F -0.4 °F 78% 30.17 in 10.0 mi NW 9.2 mph - N/A   Overcast
3:15 AM 5.0 °F -10.0 °F -0.4 °F 78% 30.18 in 10.0 mi NW 10.4 mph - N/A   Overcast
3:35 AM 5.0 °F -10.0 °F -0.4 °F 78% 30.19 in 10.0 mi NW 10.4 mph - N/A   Overcast
3:55 AM 5.0 °F -6.9 °F 1.4 °F 85% 30.20 in 10.0 mi NW 6.9 mph - N/A   Overcast
4:15 AM 6.8 °F -5.9 °F 1.4 °F 79% 30.21 in 10.0 mi NW 8.1 mph - N/A   Overcast
4:35 AM 6.8 °F -4.8 °F 1.4 °F 79% 30.22 in 10.0 mi NNW 6.9 mph - N/A   Overcast
4:55 AM 6.8 °F -4.8 °F 1.4 °F 79% 30.22 in 10.0 mi NNW 6.9 mph - N/A   Mostly Cloudy
5:15 AM 6.8 °F -3.5 °F 1.4 °F 79% 30.23 in 10.0 mi NNW 5.8 mph - N/A   Mostly Cloudy
5:35 AM 6.8 °F -3.5 °F 1.4 °F 79% 30.24 in 10.0 mi NNW 5.8 mph - N/A   Mostly Cloudy
6:15 AM 6.8 °F -2.0 °F 1.4 °F 79% 30.24 in 10.0 mi NNW 4.6 mph - N/A   Scattered Clouds
6:35 AM 8.6 °F -7.7 °F 3.2 °F 79% 30.24 in 10.0 mi North 13.8 mph 19.6 mph N/A   Mostly Cloudy
6:55 AM 10.4 °F -4.1 °F 3.2 °F 73% 30.26 in 10.0 mi North 11.5 mph 27.6 mph N/A   Mostly Cloudy
7:15 AM 10.4 °F -5.4 °F 3.2 °F 73% 30.27 in 10.0 mi North 13.8 mph 18.4 mph N/A   Overcast
7:35 AM 10.4 °F -5.4 °F 3.2 °F 73% 30.26 in 10.0 mi North 13.8 mph 23.0 mph N/A   Mostly Cloudy
7:55 AM 10.4 °F -3.3 °F 3.2 °F 73% 30.27 in 10.0 mi North 10.4 mph 21.9 mph N/A   Scattered Clouds
8:15 AM 12.2 °F -0.2 °F 3.2 °F 67% 30.27 in 10.0 mi North 9.2 mph - N/A   Scattered Clouds
8:35 AM 12.2 °F -4.3 °F 3.2 °F 67% 30.27 in 10.0 mi North 16.1 mph - N/A   Scattered Clouds
8:55 AM 12.2 °F -4.3 °F 3.2 °F 67% 30.27 in 10.0 mi North 16.1 mph 19.6 mph N/A   Scattered Clouds
9:35 AM 14.0 °F -2.0 °F 3.2 °F 62% 30.29 in 10.0 mi North 16.1 mph 23.0 mph N/A   Scattered Clouds
9:55 AM 14.0 °F 1.2 °F 3.2 °F 62% 30.29 in 10.0 mi North 10.4 mph - N/A   Scattered Clouds
10:15 AM 15.8 °F 4.2 °F 5.0 °F 62% 30.29 in 10.0 mi North 9.2 mph 19.6 mph N/A   Scattered Clouds
10:35 AM 15.8 °F 1.4 °F 3.2 °F 58% 30.29 in 10.0 mi North 13.8 mph 20.7 mph N/A   Scattered Clouds
10:55 AM 17.6 °F 2.7 °F 5.0 °F 58% 30.29 in 10.0 mi NNE 16.1 mph 23.0 mph N/A   Clear
11:15 AM 17.6 °F 3.2 °F 5.0 °F 58% 30.30 in 10.0 mi North 15.0 mph 20.7 mph N/A   Clear
11:35 AM 19.4 °F 6.0 °F 5.0 °F 54% 30.30 in 10.0 mi North 13.8 mph 20.7 mph N/A   Clear
11:55 AM 19.4 °F 7.2 °F 5.0 °F 54% 30.29 in 10.0 mi North 11.5 mph - N/A   Clear
12:15 PM 19.4 °F 6.0 °F 5.0 °F 54% 30.29 in 10.0 mi NNE 13.8 mph 18.4 mph N/A   Clear
12:35 PM 19.4 °F 6.6 °F 5.0 °F 54% 30.29 in 10.0 mi NE 12.7 mph 18.4 mph N/A   Clear
12:55 PM 21.2 °F 12.6 °F 5.0 °F 50% 30.29 in 10.0 mi NNE 6.9 mph - N/A   Clear
1:15 PM 21.2 °F 11.7 °F 5.0 °F 50% 30.29 in 10.0 mi North 8.1 mph - N/A   Clear
1:35 PM 21.2 °F 10.1 °F 5.0 °F 50% 30.28 in 10.0 mi North 10.4 mph 18.4 mph N/A   Clear
1:55 PM 21.2 °F 8.3 °F 5.0 °F 50% 30.29 in 10.0 mi NNE 13.8 mph 18.4 mph N/A   Clear
2:35 PM 23.0 °F 11.7 °F 5.0 °F 46% 30.30 in 10.0 mi North 11.5 mph 18.4 mph N/A   Clear
2:55 PM 23.0 °F 14.7 °F 5.0 °F 46% 30.32 in 10.0 mi NNW 6.9 mph - N/A   Clear
3:15 PM 23.0 °F 14.7 °F 5.0 °F 46% 30.33 in 10.0 mi North 6.9 mph - N/A   Clear
3:35 PM 23.0 °F 11.7 °F 5.0 °F 46% 30.33 in 10.0 mi NNW 11.5 mph - N/A   Clear
3:55 PM 23.0 °F 14.7 °F 5.0 °F 46% 30.33 in 10.0 mi NNW 6.9 mph - N/A   Clear
4:15 PM 23.0 °F 12.4 °F 5.0 °F 46% 30.33 in 10.0 mi NNW 10.4 mph - N/A   Clear
4:35 PM 21.2 °F 10.9 °F 5.0 °F 50% 30.34 in 10.0 mi North 9.2 mph - N/A   Clear
4:55 PM 21.2 °F 11.7 °F 5.0 °F 50% 30.34 in 10.0 mi North 8.1 mph - N/A   Clear
5:15 PM 19.4 °F 7.9 °F 5.0 °F 54% 30.34 in 10.0 mi North 10.4 mph - N/A   Clear
5:55 PM 17.6 °F 9.3 °F 5.0 °F 58% 30.35 in 10.0 mi North 5.8 mph - N/A   Clear
6:15 PM 17.6 °F 9.3 °F 5.0 °F 58% 30.35 in 10.0 mi North 5.8 mph - N/A   Clear
6:35 PM 17.6 °F 8.2 °F 5.0 °F 58% 30.36 in 10.0 mi North 6.9 mph - N/A   Clear
6:55 PM 15.8 °F 5.1 °F 5.0 °F 62% 30.37 in 10.0 mi North 8.1 mph - N/A   Clear
7:15 PM 14.0 °F 2.9 °F 5.0 °F 67% 30.36 in 10.0 mi North 8.1 mph - N/A   Clear
7:35 PM 14.0 °F 2.9 °F 5.0 °F 67% 30.36 in 10.0 mi North 8.1 mph - N/A   Clear
7:55 PM 14.0 °F 2.0 °F 5.0 °F 67% 30.36 in 10.0 mi NNE 9.2 mph - N/A   Clear
8:15 PM 12.2 °F -1.0 °F 5.0 °F 73% 30.36 in 10.0 mi NNE 10.4 mph - N/A   Clear
8:35 PM 12.2 °F -0.2 °F 5.0 °F 73% 30.35 in 10.0 mi North 9.2 mph - N/A   Clear
8:55 PM 12.2 °F 1.7 °F 5.0 °F 73% 30.36 in 10.0 mi NNE 6.9 mph - N/A   Clear
9:15 PM 10.4 °F -2.4 °F 5.0 °F 79% 30.36 in 10.0 mi NNE 9.2 mph - N/A   Clear
9:35 PM 10.4 °F -1.5 °F 3.2 °F 73% 30.36 in 10.0 mi NNE 8.1 mph - N/A   Clear
9:55 PM 10.4 °F -0.4 °F 3.2 °F 73% 30.35 in 10.0 mi NNE 6.9 mph - N/A   Clear
10:15 PM 8.6 °F -1.3 °F 1.4 °F 73% 30.35 in 10.0 mi NNE 5.8 mph - N/A   Clear
10:35 PM 8.6 °F 0.1 °F 1.4 °F 73% 30.35 in 10.0 mi NNE 4.6 mph - N/A   Clear
10:55 PM 8.6 °F 2.0 °F 1.4 °F 73% 30.35 in 10.0 mi NNE 3.5 mph - N/A   Clear
11:15 PM 6.8 °F -2.0 °F 1.4 °F 79% 30.34 in 10.0 mi NNE 4.6 mph - N/A   Clear
11:35 PM 6.8 °F -0.1 °F -0.4 °F 72% 30.34 in 10.0 mi NNE 3.5 mph - N/A   Clear
11:55 PM 3.2 °F - -0.4 °F 85% 30.35 in 10.0 mi Calm Calm - N/A   Clear